Location: Newark
(50.0306°N, 2.3272°E)
Time: 19:02:39
(UTC+00:00)

Vanguard 1 Rocket - Pass Details

Date: 13 December 2019
Orbit: 650 x 4226 km, 34.3° (Epoch: 17 January)

Event Time Altitude Azimuth Distance (km) Brightness Sun altitude
Rises 23:47:40 0° 262° (W) 6,498 11.7 -63.1°
Enters shadow 23:48:37 - 261° (W) 6,225 11.6 -63.1°
Reaches altitude 10° 23:53:28 10° 253° (WSW) 4,811 - -63.0°
Maximum altitude 00:02:44 26° 203° (SSW) 2,583 - -62.8°
Drops below altitude 10° 00:08:33 10° 149° (SSE) 2,908 - -62.7°
Sets 00:11:06 0° 135° (SE) 3,567 - -62.6°
